User: anonymous   Login
Location: Unspecified
(0.0000°N, 0.0000°E)
Time: 07:22:38
(UTC+00:00)
Language:

Uosat F - Orbit

View from above orbital plane
View from above orbital plane
View from above satellite
View from above satellite

Ground track
Ground track

The orbit is defined by the following mean orbital elements,

1 21575U          26106.92209787 +.00000000 +00000-0 +47042-4 0 00003
2 21575  98.3536 176.6690 0007176  10.2290 349.9045 14.42345884    03
Epoch (UTC): 16 April 2026 22:07:49
Eccentricity: 0.0007176
inclination: 98.3536°
perigee height: 746 km
apogee height: 756 km
right ascension of ascending node: 176.6690°
argument of perigee: 10.2290°
revolutions per day: 14.42345884
mean anomaly at epoch: 349.9045°

The dashed part of the orbit path shows where the satellite is in the earth's shadow,  

DLR